Year,Month,Day,Hour,Minute,Value (Times are PST for temperature in C)
2012,09,27,00,00,9.90
2012,09,27,00,01,9.90
2012,09,27,00,02,9.90
2012,09,27,00,03,9.90
2012,09,27,00,04,9.90
2012,09,27,00,05,9.90
2012,09,27,00,06,9.90
2012,09,27,00,07,9.90
2012,09,27,00,08,9.90
2012,09,27,00,09,9.90
2012,09,27,00,10,9.90
2012,09,27,00,11,9.90
2012,09,27,00,12,9.90
2012,09,27,00,13,9.80
2012,09,27,00,14,9.80
2012,09,27,00,15,9.80
2012,09,27,00,16,9.80
2012,09,27,00,17,9.80
2012,09,27,00,18,9.80
2012,09,27,00,19,9.80
2012,09,27,00,20,9.80
2012,09,27,00,21,9.80
2012,09,27,00,22,9.70
2012,09,27,00,23,9.70
2012,09,27,00,24,9.70
2012,09,27,00,25,9.70
2012,09,27,00,26,9.70
2012,09,27,00,27,9.70
2012,09,27,00,28,9.70
2012,09,27,00,29,9.70
2012,09,27,00,30,9.70
2012,09,27,00,31,9.70
2012,09,27,00,32,9.70
2012,09,27,00,33,9.80
2012,09,27,00,34,9.80
2012,09,27,00,35,9.80
2012,09,27,00,36,9.80
2012,09,27,00,37,9.80
2012,09,27,00,38,9.80
2012,09,27,00,39,9.80
2012,09,27,00,40,9.70
2012,09,27,00,41,9.70
2012,09,27,00,42,9.70
2012,09,27,00,43,9.60
2012,09,27,00,44,9.60
2012,09,27,00,45,9.60
2012,09,27,00,46,9.50
2012,09,27,00,47,9.50
2012,09,27,00,48,9.50
2012,09,27,00,49,9.40
2012,09,27,00,50,9.40
2012,09,27,00,51,9.40
2012,09,27,00,52,9.40
2012,09,27,00,53,9.30
2012,09,27,00,54,9.30
2012,09,27,00,55,9.30
2012,09,27,00,56,9.30
2012,09,27,00,57,9.30
2012,09,27,00,58,9.30
2012,09,27,00,59,9.20
2012,09,27,01,00,9.20
2012,09,27,01,01,9.20
2012,09,27,01,02,9.20
2012,09,27,01,03,9.20
2012,09,27,01,04,9.10
2012,09,27,01,05,9.10
2012,09,27,01,06,9.10
2012,09,27,01,07,9.10
2012,09,27,01,08,9.10
2012,09,27,01,09,9.10
2012,09,27,01,10,9.10
2012,09,27,01,11,9.10
2012,09,27,01,12,9.10
2012,09,27,01,13,9.10
2012,09,27,01,14,9.10
2012,09,27,01,15,9.10
2012,09,27,01,16,9.10
2012,09,27,01,17,9.10
2012,09,27,01,18,9.20
2012,09,27,01,19,9.10
2012,09,27,01,20,9.10
2012,09,27,01,21,9.10
2012,09,27,01,22,9.10
2012,09,27,01,23,9.10
2012,09,27,01,24,9.10
2012,09,27,01,25,9.10
2012,09,27,01,26,9.10
2012,09,27,01,27,9.10
2012,09,27,01,28,9.10
2012,09,27,01,29,9.10
2012,09,27,01,30,9.10
2012,09,27,01,31,9.10
2012,09,27,01,32,9.10
2012,09,27,01,33,9.10
2012,09,27,01,34,9.20
2012,09,27,01,35,9.20
2012,09,27,01,36,9.20
2012,09,27,01,37,9.30
2012,09,27,01,38,9.30
2012,09,27,01,39,9.40
2012,09,27,01,40,9.60
2012,09,27,01,41,9.70
2012,09,27,01,42,9.80
2012,09,27,01,43,9.90
2012,09,27,01,44,9.90
2012,09,27,01,45,10.00
2012,09,27,01,46,10.10
2012,09,27,01,47,10.10
2012,09,27,01,48,10.10
2012,09,27,01,49,10.20
2012,09,27,01,50,10.20
2012,09,27,01,51,10.20
2012,09,27,01,52,10.20
2012,09,27,01,53,10.20
2012,09,27,01,54,10.10
2012,09,27,01,55,10.10
2012,09,27,01,56,10.10
2012,09,27,01,57,10.00
2012,09,27,01,58,10.00
2012,09,27,01,59,9.90
2012,09,27,02,00,9.90
2012,09,27,02,01,9.90
2012,09,27,02,02,9.90
2012,09,27,02,03,9.80
2012,09,27,02,04,9.80
2012,09,27,02,05,9.80
2012,09,27,02,06,9.80
2012,09,27,02,07,9.70
2012,09,27,02,08,9.70
2012,09,27,02,09,9.70
2012,09,27,02,10,9.70
2012,09,27,02,11,9.60
2012,09,27,02,12,9.60
2012,09,27,02,13,9.60
2012,09,27,02,14,9.60
2012,09,27,02,15,9.60
2012,09,27,02,16,9.60
2012,09,27,02,17,9.60
2012,09,27,02,18,9.60
2012,09,27,02,19,9.60
2012,09,27,02,20,9.50
2012,09,27,02,21,9.50
2012,09,27,02,22,9.50
2012,09,27,02,23,9.40
2012,09,27,02,24,9.40
2012,09,27,02,25,9.40
2012,09,27,02,26,9.40
2012,09,27,02,27,9.40
2012,09,27,02,28,9.40
2012,09,27,02,29,9.40
2012,09,27,02,30,9.30
2012,09,27,02,31,9.30
2012,09,27,02,32,9.30
2012,09,27,02,33,9.30
2012,09,27,02,34,9.30
2012,09,27,02,35,9.30
2012,09,27,02,36,9.30
2012,09,27,02,37,9.30
2012,09,27,02,38,9.30
2012,09,27,02,39,9.20
2012,09,27,02,40,9.20
2012,09,27,02,41,9.20
2012,09,27,02,42,9.20
2012,09,27,02,43,9.20
2012,09,27,02,44,9.20
2012,09,27,02,45,9.20
2012,09,27,02,46,9.10
2012,09,27,02,47,9.10
2012,09,27,02,48,9.10
2012,09,27,02,49,9.10
2012,09,27,02,50,9.10
2012,09,27,02,51,9.10
2012,09,27,02,52,9.10
2012,09,27,02,53,9.00
2012,09,27,02,54,9.00
2012,09,27,02,55,9.00
2012,09,27,02,56,9.00
2012,09,27,02,57,9.00
2012,09,27,02,58,9.10
2012,09,27,02,59,9.10
2012,09,27,03,00,9.10
2012,09,27,03,01,9.10
2012,09,27,03,02,9.10
2012,09,27,03,03,9.10
2012,09,27,03,04,9.10
2012,09,27,03,05,9.10
2012,09,27,03,06,9.10
2012,09,27,03,07,9.20
2012,09,27,03,08,9.30
2012,09,27,03,09,9.30
2012,09,27,03,10,9.40
2012,09,27,03,11,9.50
2012,09,27,03,12,9.60
2012,09,27,03,13,9.70
2012,09,27,03,14,9.80
2012,09,27,03,15,9.90
2012,09,27,03,16,10.00
2012,09,27,03,17,10.00
2012,09,27,03,18,10.10
2012,09,27,03,19,10.10
2012,09,27,03,20,10.10
2012,09,27,03,21,10.20
2012,09,27,03,22,10.20
2012,09,27,03,23,10.20
2012,09,27,03,24,10.30
2012,09,27,03,25,10.30
2012,09,27,03,26,10.30
2012,09,27,03,27,10.40
2012,09,27,03,28,10.40
2012,09,27,03,29,10.40
2012,09,27,03,30,10.50
2012,09,27,03,31,10.50
2012,09,27,03,32,10.60
2012,09,27,03,33,10.60
2012,09,27,03,34,10.60
2012,09,27,03,35,10.60
2012,09,27,03,36,10.60
2012,09,27,03,37,10.60
2012,09,27,03,38,10.70
2012,09,27,03,39,10.70
2012,09,27,03,40,10.70
2012,09,27,03,41,10.70
2012,09,27,03,42,10.70
2012,09,27,03,43,10.70
2012,09,27,03,44,10.70
2012,09,27,03,45,10.80
2012,09,27,03,46,10.80
2012,09,27,03,47,10.80
2012,09,27,03,48,10.80
2012,09,27,03,49,10.80
2012,09,27,03,50,10.80
2012,09,27,03,51,10.80
2012,09,27,03,52,10.90
2012,09,27,03,53,10.90
2012,09,27,03,54,10.90
2012,09,27,03,55,10.90
2012,09,27,03,56,11.00
2012,09,27,03,57,11.00
2012,09,27,03,58,11.00
2012,09,27,03,59,11.00
2012,09,27,04,00,11.00
2012,09,27,04,01,11.00
2012,09,27,04,02,11.00
2012,09,27,04,03,11.00
2012,09,27,04,04,11.00
2012,09,27,04,05,11.00
2012,09,27,04,06,11.10
2012,09,27,04,07,11.10
2012,09,27,04,08,11.10
2012,09,27,04,09,11.10
2012,09,27,04,10,11.10
2012,09,27,04,11,11.10
2012,09,27,04,12,11.10
2012,09,27,04,13,11.10
2012,09,27,04,14,11.10
2012,09,27,04,15,11.10
2012,09,27,04,16,11.10
2012,09,27,04,17,11.10
2012,09,27,04,18,11.10
2012,09,27,04,19,11.10
2012,09,27,04,20,11.00
2012,09,27,04,21,10.90
2012,09,27,04,22,10.80
2012,09,27,04,23,10.80
2012,09,27,04,24,10.70
2012,09,27,04,25,10.70
2012,09,27,04,26,10.60
2012,09,27,04,27,10.60
2012,09,27,04,28,10.50
2012,09,27,04,29,10.50
2012,09,27,04,30,10.40
2012,09,27,04,31,10.40
2012,09,27,04,32,10.30
2012,09,27,04,33,10.30
2012,09,27,04,34,10.30
2012,09,27,04,35,10.20
2012,09,27,04,36,10.20
2012,09,27,04,37,10.20
2012,09,27,04,38,10.20
2012,09,27,04,39,10.10
2012,09,27,04,40,10.10
2012,09,27,04,41,10.10
2012,09,27,04,42,10.00
2012,09,27,04,43,10.00
2012,09,27,04,44,9.90
2012,09,27,04,45,9.90
2012,09,27,04,46,9.80
2012,09,27,04,47,9.80
2012,09,27,04,48,9.80
2012,09,27,04,49,9.80
2012,09,27,04,50,9.80
2012,09,27,04,51,9.80
2012,09,27,04,52,9.80
2012,09,27,04,53,9.80
2012,09,27,04,54,9.70
2012,09,27,04,55,9.70
2012,09,27,04,56,9.70
2012,09,27,04,57,9.70
2012,09,27,04,58,9.70
2012,09,27,04,59,9.60
2012,09,27,05,00,9.60
2012,09,27,05,01,9.60
2012,09,27,05,02,9.60
2012,09,27,05,03,9.60
2012,09,27,05,04,9.60
2012,09,27,05,05,9.60
2012,09,27,05,06,9.60
2012,09,27,05,07,9.70
2012,09,27,05,08,9.70
2012,09,27,05,09,9.70
2012,09,27,05,10,9.70
2012,09,27,05,11,9.80
2012,09,27,05,12,9.80
2012,09,27,05,13,9.80
2012,09,27,05,14,9.80
2012,09,27,05,15,9.80
2012,09,27,05,16,9.90
2012,09,27,05,17,9.90
2012,09,27,05,18,10.00
2012,09,27,05,19,10.00
2012,09,27,05,20,10.10
2012,09,27,05,21,10.10
2012,09,27,05,22,10.10
2012,09,27,05,23,10.20
2012,09,27,05,24,10.20
2012,09,27,05,25,10.30
2012,09,27,05,26,10.30
2012,09,27,05,27,10.30
2012,09,27,05,28,10.30
2012,09,27,05,29,10.30
2012,09,27,05,30,10.40
2012,09,27,05,31,10.40
2012,09,27,05,32,10.40
2012,09,27,05,33,10.40
2012,09,27,05,34,10.40
2012,09,27,05,35,10.50
2012,09,27,05,36,10.50
2012,09,27,05,37,10.50
2012,09,27,05,38,10.60
2012,09,27,05,39,10.60
2012,09,27,05,40,10.60
2012,09,27,05,41,10.60
2012,09,27,05,42,10.60
2012,09,27,05,43,10.60
2012,09,27,05,44,10.60
2012,09,27,05,45,10.60
2012,09,27,05,46,10.60
2012,09,27,05,47,10.60
2012,09,27,05,48,10.60
2012,09,27,05,49,10.60
2012,09,27,05,50,10.60
2012,09,27,05,51,10.60
2012,09,27,05,52,10.60
2012,09,27,05,53,10.50
2012,09,27,05,54,10.50
2012,09,27,05,55,10.40
2012,09,27,05,56,10.40
2012,09,27,05,57,10.30
2012,09,27,05,58,10.30
2012,09,27,05,59,10.30
2012,09,27,06,00,10.20
2012,09,27,06,01,10.10
2012,09,27,06,02,10.10
2012,09,27,06,03,10.00
2012,09,27,06,04,10.00
2012,09,27,06,05,9.90
2012,09,27,06,06,9.90
2012,09,27,06,07,9.80
2012,09,27,06,08,9.80
2012,09,27,06,09,9.70
2012,09,27,06,10,9.70
2012,09,27,06,11,9.60
2012,09,27,06,12,9.60
2012,09,27,06,13,9.60
2012,09,27,06,14,9.50
2012,09,27,06,15,9.50
2012,09,27,06,16,9.40
2012,09,27,06,17,9.40
2012,09,27,06,18,9.30
2012,09,27,06,19,9.30
2012,09,27,06,20,9.30
2012,09,27,06,21,9.30
2012,09,27,06,22,9.20
2012,09,27,06,23,9.20
2012,09,27,06,24,9.20
2012,09,27,06,25,9.20
2012,09,27,06,26,9.20
2012,09,27,06,27,9.20
2012,09,27,06,28,9.30
2012,09,27,06,29,9.30
2012,09,27,06,30,9.30
2012,09,27,06,31,9.30
2012,09,27,06,32,9.30
2012,09,27,06,33,9.30
2012,09,27,06,34,9.30
2012,09,27,06,35,9.30
2012,09,27,06,36,9.30
2012,09,27,06,37,9.20
2012,09,27,06,38,9.20
2012,09,27,06,39,9.20
2012,09,27,06,40,9.20
2012,09,27,06,41,9.20
2012,09,27,06,42,9.20
2012,09,27,06,43,9.10
2012,09,27,06,44,9.10
2012,09,27,06,45,9.10
2012,09,27,06,46,9.10
2012,09,27,06,47,9.10
2012,09,27,06,48,9.10
2012,09,27,06,49,9.10
2012,09,27,06,50,9.10
2012,09,27,06,51,9.20
2012,09,27,06,52,9.30
2012,09,27,06,53,9.40
2012,09,27,06,54,9.40
2012,09,27,06,55,9.60
2012,09,27,06,56,9.70
2012,09,27,06,57,9.70
2012,09,27,06,58,9.80
2012,09,27,06,59,9.90
2012,09,27,07,00,9.90
2012,09,27,07,01,10.00
2012,09,27,07,02,10.00
2012,09,27,07,03,10.10
2012,09,27,07,04,10.10
2012,09,27,07,05,10.10
2012,09,27,07,06,10.20
2012,09,27,07,07,10.20
2012,09,27,07,08,10.20
2012,09,27,07,09,10.20
2012,09,27,07,10,10.20
2012,09,27,07,11,10.20
2012,09,27,07,12,10.20
2012,09,27,07,13,10.20
2012,09,27,07,14,10.20
2012,09,27,07,15,10.20
2012,09,27,07,16,10.20
2012,09,27,07,17,10.20
2012,09,27,07,18,10.20
2012,09,27,07,19,10.20
2012,09,27,07,20,10.30
2012,09,27,07,21,10.30
2012,09,27,07,22,10.30
2012,09,27,07,23,10.30
2012,09,27,07,24,10.30
2012,09,27,07,25,10.30
2012,09,27,07,26,10.30
2012,09,27,07,27,10.30
2012,09,27,07,28,10.30
2012,09,27,07,29,10.30
2012,09,27,07,30,10.30
2012,09,27,07,31,10.30
2012,09,27,07,32,10.30
2012,09,27,07,33,10.30
2012,09,27,07,34,10.30
2012,09,27,07,35,10.30
2012,09,27,07,36,10.30
2012,09,27,07,37,10.30
2012,09,27,07,38,10.30
2012,09,27,07,39,10.30
2012,09,27,07,40,10.30
2012,09,27,07,41,10.30
2012,09,27,07,42,10.30
2012,09,27,07,43,10.30
2012,09,27,07,44,10.30
2012,09,27,07,45,10.40
2012,09,27,07,46,10.40
2012,09,27,07,47,10.40
2012,09,27,07,48,10.40
2012,09,27,07,49,10.40
2012,09,27,07,50,10.40
2012,09,27,07,51,10.50
2012,09,27,07,52,10.50
2012,09,27,07,53,10.60
2012,09,27,07,54,10.60
2012,09,27,07,55,10.60
2012,09,27,07,56,10.70
2012,09,27,07,57,10.70
2012,09,27,07,58,10.70
2012,09,27,07,59,10.80
2012,09,27,08,00,10.80
2012,09,27,08,01,10.80
2012,09,27,08,02,10.80
2012,09,27,08,03,10.80
2012,09,27,08,04,10.80
2012,09,27,08,05,10.80
2012,09,27,08,06,10.90
2012,09,27,08,07,10.90
2012,09,27,08,08,10.90
2012,09,27,08,09,11.00
2012,09,27,08,10,11.00
2012,09,27,08,11,11.10
2012,09,27,08,12,11.10
2012,09,27,08,13,11.20
2012,09,27,08,14,11.20
2012,09,27,08,15,11.20
2012,09,27,08,16,11.20
2012,09,27,08,17,11.30
2012,09,27,08,18,11.30
2012,09,27,08,19,11.30
2012,09,27,08,20,11.40
2012,09,27,08,21,11.40
2012,09,27,08,22,11.50
2012,09,27,08,23,11.60
2012,09,27,08,24,11.60
2012,09,27,08,25,11.70
2012,09,27,08,26,11.80
2012,09,27,08,27,11.80
2012,09,27,08,28,11.90
2012,09,27,08,29,12.00
2012,09,27,08,30,12.10
2012,09,27,08,31,12.10
2012,09,27,08,32,12.20
2012,09,27,08,33,12.30
2012,09,27,08,34,12.30
2012,09,27,08,35,12.40
2012,09,27,08,36,12.40
2012,09,27,08,37,12.50
2012,09,27,08,38,12.60
2012,09,27,08,39,12.70
2012,09,27,08,40,12.70
2012,09,27,08,41,12.80
2012,09,27,08,42,12.80
2012,09,27,08,43,12.80
2012,09,27,08,44,12.90
2012,09,27,08,45,12.90
2012,09,27,08,46,13.00
2012,09,27,08,47,13.00
2012,09,27,08,48,13.10
2012,09,27,08,49,13.10
2012,09,27,08,50,13.20
2012,09,27,08,51,13.20
2012,09,27,08,52,13.30
2012,09,27,08,53,13.30
2012,09,27,08,54,13.30
2012,09,27,08,55,13.40
2012,09,27,08,56,13.40
2012,09,27,08,57,13.40
2012,09,27,08,58,13.50
2012,09,27,08,59,13.50
2012,09,27,09,00,13.60
2012,09,27,09,01,13.60
2012,09,27,09,02,13.60
2012,09,27,09,03,13.70
2012,09,27,09,04,13.70
2012,09,27,09,05,13.70
2012,09,27,09,06,13.70
2012,09,27,09,07,13.70
2012,09,27,09,08,13.80
2012,09,27,09,09,13.80
2012,09,27,09,10,13.80
2012,09,27,09,11,13.80
2012,09,27,09,12,13.80
2012,09,27,09,13,13.80
2012,09,27,09,14,13.80
2012,09,27,09,15,13.80
2012,09,27,09,16,13.90
2012,09,27,09,17,13.90
2012,09,27,09,18,13.90
2012,09,27,09,19,14.00
2012,09,27,09,20,14.00
2012,09,27,09,21,14.00
2012,09,27,09,22,14.10
2012,09,27,09,23,14.10
2012,09,27,09,24,14.20
2012,09,27,09,25,14.20
2012,09,27,09,26,14.20
2012,09,27,09,27,14.20
2012,09,27,09,28,14.10
2012,09,27,09,29,14.10
2012,09,27,09,30,14.10
2012,09,27,09,31,14.10
2012,09,27,09,32,14.10
2012,09,27,09,33,14.10
2012,09,27,09,34,14.20
2012,09,27,09,35,14.20
2012,09,27,09,36,14.20
2012,09,27,09,37,14.30
2012,09,27,09,38,14.30
2012,09,27,09,39,14.30
2012,09,27,09,40,14.30
2012,09,27,09,41,14.40
2012,09,27,09,42,14.40
2012,09,27,09,43,14.40
2012,09,27,09,44,14.40
2012,09,27,09,45,14.50
2012,09,27,09,46,14.40
2012,09,27,09,47,14.40
2012,09,27,09,48,14.40
2012,09,27,09,49,14.50
2012,09,27,09,50,14.50
2012,09,27,09,51,14.50
2012,09,27,09,52,14.50
2012,09,27,09,53,14.60
2012,09,27,09,54,14.60
2012,09,27,09,55,14.60
2012,09,27,09,56,14.60
2012,09,27,09,57,14.60
2012,09,27,09,58,14.60
2012,09,27,09,59,14.70
2012,09,27,10,00,14.70
2012,09,27,10,01,14.80
2012,09,27,10,02,14.80
2012,09,27,10,03,14.90
2012,09,27,10,04,15.00
2012,09,27,10,05,15.10
2012,09,27,10,06,15.10
2012,09,27,10,07,15.20
2012,09,27,10,08,15.20
2012,09,27,10,09,15.30
2012,09,27,10,10,15.40
2012,09,27,10,11,15.40
2012,09,27,10,12,15.50
2012,09,27,10,13,15.60
2012,09,27,10,14,15.60
2012,09,27,10,15,15.70
2012,09,27,10,16,15.70
2012,09,27,10,17,15.70
2012,09,27,10,18,15.70
2012,09,27,10,19,15.70
2012,09,27,10,20,15.80
2012,09,27,10,21,15.80
2012,09,27,10,22,15.90
2012,09,27,10,23,15.90
2012,09,27,10,24,15.90
2012,09,27,10,25,15.90
2012,09,27,10,26,15.90
2012,09,27,10,27,15.90
2012,09,27,10,28,15.90
2012,09,27,10,29,15.90
2012,09,27,10,30,15.90
2012,09,27,10,31,15.90
2012,09,27,10,32,15.90
2012,09,27,10,33,15.90
2012,09,27,10,34,16.00
2012,09,27,10,35,16.00
2012,09,27,10,36,16.00
2012,09,27,10,37,16.00
2012,09,27,10,38,15.90
2012,09,27,10,39,16.00
2012,09,27,10,40,16.00
2012,09,27,10,41,16.10
2012,09,27,10,42,16.10
2012,09,27,10,43,16.20
2012,09,27,10,44,16.20
2012,09,27,10,45,16.20
2012,09,27,10,46,16.20
2012,09,27,10,47,16.30
2012,09,27,10,48,16.30
2012,09,27,10,49,16.30
2012,09,27,10,50,16.30
2012,09,27,10,51,16.30
2012,09,27,10,52,16.30
2012,09,27,10,53,16.20
2012,09,27,10,54,16.20
2012,09,27,10,55,16.20
2012,09,27,10,56,16.20
2012,09,27,10,57,16.20
2012,09,27,10,58,16.20
2012,09,27,10,59,16.20
2012,09,27,11,00,16.20
2012,09,27,11,01,16.10
2012,09,27,11,02,16.00
2012,09,27,11,03,16.00
2012,09,27,11,04,15.90
2012,09,27,11,05,15.90
2012,09,27,11,06,15.80
2012,09,27,11,07,15.70
2012,09,27,11,08,15.70
2012,09,27,11,09,15.70
2012,09,27,11,10,15.70
2012,09,27,11,11,15.70
2012,09,27,11,12,15.70
2012,09,27,11,13,15.70
2012,09,27,11,14,15.70
2012,09,27,11,15,15.70
2012,09,27,11,16,15.70
2012,09,27,11,17,15.70
2012,09,27,11,18,15.70
2012,09,27,11,19,15.70
2012,09,27,11,20,15.70
2012,09,27,11,21,15.70
2012,09,27,11,22,15.70
2012,09,27,11,23,15.70
2012,09,27,11,24,15.70
2012,09,27,11,25,15.70
2012,09,27,11,26,15.60
2012,09,27,11,27,15.50
2012,09,27,11,28,15.50
2012,09,27,11,29,15.50
2012,09,27,11,30,15.50
2012,09,27,11,31,15.50
2012,09,27,11,32,15.60
2012,09,27,11,33,15.60
2012,09,27,11,34,15.60
2012,09,27,11,35,15.60
2012,09,27,11,36,15.70
2012,09,27,11,37,15.70
2012,09,27,11,38,15.70
2012,09,27,11,39,15.80
2012,09,27,11,40,15.80
2012,09,27,11,41,15.90
2012,09,27,11,42,15.90
2012,09,27,11,43,15.90
2012,09,27,11,44,15.90
2012,09,27,11,45,15.90
2012,09,27,11,46,15.90
2012,09,27,11,47,15.90
2012,09,27,11,48,15.90
2012,09,27,11,49,16.00
2012,09,27,11,50,16.00
2012,09,27,11,51,16.10
2012,09,27,11,52,16.10
2012,09,27,11,53,16.10
2012,09,27,11,54,16.10
2012,09,27,11,55,16.10
2012,09,27,11,56,16.10
2012,09,27,11,57,16.10
2012,09,27,11,58,16.10
2012,09,27,11,59,16.10
2012,09,27,12,00,16.10
2012,09,27,12,01,16.20
2012,09,27,12,02,16.20
2012,09,27,12,03,16.20
2012,09,27,12,04,16.20
2012,09,27,12,05,16.20
2012,09,27,12,06,16.20
2012,09,27,12,07,16.30
2012,09,27,12,08,16.30
2012,09,27,12,09,16.30
2012,09,27,12,10,16.30
2012,09,27,12,11,16.20
2012,09,27,12,12,16.20
2012,09,27,12,13,16.20
2012,09,27,12,14,16.20
2012,09,27,12,15,16.20
2012,09,27,12,16,16.20
2012,09,27,12,17,16.20
2012,09,27,12,18,16.10
2012,09,27,12,19,16.20
2012,09,27,12,20,16.20
2012,09,27,12,21,16.20
2012,09,27,12,22,16.20
2012,09,27,12,23,16.20
2012,09,27,12,24,16.20
2012,09,27,12,25,16.20
2012,09,27,12,26,16.20
2012,09,27,12,27,16.20
2012,09,27,12,28,16.30
2012,09,27,12,29,16.30
2012,09,27,12,30,16.30
2012,09,27,12,31,16.40
2012,09,27,12,32,16.50
2012,09,27,12,33,16.50
2012,09,27,12,34,16.60
2012,09,27,12,35,16.60
2012,09,27,12,36,16.70
2012,09,27,12,37,16.70
2012,09,27,12,38,16.70
2012,09,27,12,39,16.70
2012,09,27,12,40,16.70
2012,09,27,12,41,16.80
2012,09,27,12,42,16.80
2012,09,27,12,43,16.80
2012,09,27,12,44,16.80
2012,09,27,12,45,16.90
2012,09,27,12,46,16.90
2012,09,27,12,47,16.90
2012,09,27,12,48,16.90
2012,09,27,12,49,16.90
2012,09,27,12,50,17.00
2012,09,27,12,51,17.00
2012,09,27,12,52,17.00
2012,09,27,12,53,17.10
2012,09,27,12,54,17.10
2012,09,27,12,55,17.10
2012,09,27,12,56,17.20
2012,09,27,12,57,17.20
2012,09,27,12,58,17.20
2012,09,27,12,59,17.20
2012,09,27,13,00,17.20
2012,09,27,13,01,17.30
2012,09,27,13,02,17.30
2012,09,27,13,03,17.30
2012,09,27,13,04,17.30
2012,09,27,13,05,17.30
2012,09,27,13,06,17.30
2012,09,27,13,07,17.30
2012,09,27,13,08,17.40
2012,09,27,13,09,17.40
2012,09,27,13,10,17.40
2012,09,27,13,11,17.40
2012,09,27,13,12,17.40
2012,09,27,13,13,17.50
2012,09,27,13,14,17.50
2012,09,27,13,15,17.60
2012,09,27,13,16,17.60
2012,09,27,13,17,17.60
2012,09,27,13,18,17.60
2012,09,27,13,19,17.60
2012,09,27,13,20,17.70
2012,09,27,13,21,17.70
2012,09,27,13,22,17.70
2012,09,27,13,23,17.70
2012,09,27,13,24,17.70
2012,09,27,13,25,17.60
2012,09,27,13,26,17.60
2012,09,27,13,27,17.60
2012,09,27,13,28,17.70
2012,09,27,13,29,17.70
2012,09,27,13,30,17.60
2012,09,27,13,31,17.60
2012,09,27,13,32,17.70
2012,09,27,13,33,17.70
2012,09,27,13,34,17.80
2012,09,27,13,35,17.80
2012,09,27,13,36,17.90
2012,09,27,13,37,17.90
2012,09,27,13,38,18.00
2012,09,27,13,39,18.00
2012,09,27,13,40,18.00
2012,09,27,13,41,17.90
2012,09,27,13,42,17.90
2012,09,27,13,43,17.80
2012,09,27,13,44,17.70
2012,09,27,13,45,17.60
2012,09,27,13,46,17.60
2012,09,27,13,47,17.60
2012,09,27,13,48,17.60
2012,09,27,13,49,17.60
2012,09,27,13,50,17.50
2012,09,27,13,51,17.40
2012,09,27,13,52,17.40
2012,09,27,13,53,17.40
2012,09,27,13,54,17.40
2012,09,27,13,55,17.40
2012,09,27,13,56,17.50
2012,09,27,13,57,17.50
2012,09,27,13,58,17.60
2012,09,27,13,59,17.60
2012,09,27,14,00,17.70
2012,09,27,14,01,17.70
2012,09,27,14,02,17.70
2012,09,27,14,03,17.70
2012,09,27,14,04,17.80
2012,09,27,14,05,17.80
2012,09,27,14,06,17.90
2012,09,27,14,07,18.00
2012,09,27,14,08,18.00
2012,09,27,14,09,18.00
2012,09,27,14,10,18.10
2012,09,27,14,11,18.10
2012,09,27,14,12,18.10
2012,09,27,14,13,18.20
2012,09,27,14,14,18.30
2012,09,27,14,15,18.30
2012,09,27,14,16,18.40
2012,09,27,14,17,18.40
2012,09,27,14,18,18.40
2012,09,27,14,19,18.40
2012,09,27,14,20,18.40
2012,09,27,14,21,18.40
2012,09,27,14,22,18.40
2012,09,27,14,23,18.40
2012,09,27,14,24,18.40
2012,09,27,14,25,18.40
2012,09,27,14,26,18.40
2012,09,27,14,27,18.40
2012,09,27,14,28,18.40
2012,09,27,14,29,18.40
2012,09,27,14,30,18.40
2012,09,27,14,31,18.40
2012,09,27,14,32,18.50
2012,09,27,14,33,18.60
2012,09,27,14,34,18.60
2012,09,27,14,35,18.60
2012,09,27,14,36,18.60
2012,09,27,14,37,18.60
2012,09,27,14,38,18.60
2012,09,27,14,39,18.70
2012,09,27,14,40,18.70
2012,09,27,14,41,18.70
2012,09,27,14,42,18.70
2012,09,27,14,43,18.70
2012,09,27,14,44,18.70
2012,09,27,14,45,18.70
2012,09,27,14,46,18.70
2012,09,27,14,47,18.70
2012,09,27,14,48,18.70
2012,09,27,14,49,18.80
2012,09,27,14,50,18.80
2012,09,27,14,51,18.80
2012,09,27,14,52,18.80
2012,09,27,14,53,18.80
2012,09,27,14,54,18.80
2012,09,27,14,55,18.80
2012,09,27,14,56,18.90
2012,09,27,14,57,18.90
2012,09,27,14,58,18.90
2012,09,27,14,59,18.90
2012,09,27,15,00,18.90
2012,09,27,15,01,18.90
2012,09,27,15,02,19.00
2012,09,27,15,03,19.00
2012,09,27,15,04,19.00
2012,09,27,15,05,19.00
2012,09,27,15,06,19.00
2012,09,27,15,07,19.10
2012,09,27,15,08,19.10
2012,09,27,15,09,19.10
2012,09,27,15,10,19.10
2012,09,27,15,11,19.10
2012,09,27,15,12,19.10
2012,09,27,15,13,19.10
2012,09,27,15,14,19.10
2012,09,27,15,15,19.10
2012,09,27,15,16,19.20
2012,09,27,15,17,19.20
2012,09,27,15,18,19.30
2012,09,27,15,19,19.30
2012,09,27,15,20,19.30
2012,09,27,15,21,19.40
2012,09,27,15,22,19.40
2012,09,27,15,23,19.50
2012,09,27,15,24,19.50
2012,09,27,15,25,19.60
2012,09,27,15,26,19.70
2012,09,27,15,27,19.80
2012,09,27,15,28,19.90
2012,09,27,15,29,19.90
2012,09,27,15,30,19.90
2012,09,27,15,31,19.90
2012,09,27,15,32,20.00
2012,09,27,15,33,19.90
2012,09,27,15,34,19.90
2012,09,27,15,35,19.80
2012,09,27,15,36,19.80
2012,09,27,15,37,19.80
2012,09,27,15,38,19.70
2012,09,27,15,39,19.60
2012,09,27,15,40,19.60
2012,09,27,15,41,19.60
2012,09,27,15,42,19.50
2012,09,27,15,43,19.50
2012,09,27,15,44,19.40
2012,09,27,15,45,19.40
2012,09,27,15,46,19.40
2012,09,27,15,47,19.30
2012,09,27,15,48,19.30
2012,09,27,15,49,19.40
2012,09,27,15,50,19.40
2012,09,27,15,51,19.40
2012,09,27,15,52,19.50
2012,09,27,15,53,19.60
2012,09,27,15,54,19.60
2012,09,27,15,55,19.60
2012,09,27,15,56,19.60
2012,09,27,15,57,19.60
2012,09,27,15,58,19.60
2012,09,27,15,59,19.50
2012,09,27,16,00,19.50
2012,09,27,16,01,19.40
2012,09,27,16,02,19.40
2012,09,27,16,03,19.40
2012,09,27,16,04,19.40
2012,09,27,16,05,19.30
2012,09,27,16,06,19.30
2012,09,27,16,07,19.30
2012,09,27,16,08,19.30
2012,09,27,16,09,19.30
2012,09,27,16,10,19.30
2012,09,27,16,11,19.30
2012,09,27,16,12,19.30
2012,09,27,16,13,19.30
2012,09,27,16,14,19.30
2012,09,27,16,15,19.30
2012,09,27,16,16,19.30
2012,09,27,16,17,19.30
2012,09,27,16,18,19.30
2012,09,27,16,19,19.30
2012,09,27,16,20,19.30
2012,09,27,16,21,19.30
2012,09,27,16,22,19.30
2012,09,27,16,23,19.30
2012,09,27,16,24,19.30
2012,09,27,16,25,19.30
2012,09,27,16,26,19.30
2012,09,27,16,27,19.20
2012,09,27,16,28,19.20
2012,09,27,16,29,19.30
2012,09,27,16,30,19.30
2012,09,27,16,31,19.30
2012,09,27,16,32,19.30
2012,09,27,16,33,19.30
2012,09,27,16,34,19.30
2012,09,27,16,35,19.20
2012,09,27,16,36,19.20
2012,09,27,16,37,19.20
2012,09,27,16,38,19.10
2012,09,27,16,39,19.10
2012,09,27,16,40,19.10
2012,09,27,16,41,19.00
2012,09,27,16,42,19.00
2012,09,27,16,43,19.00
2012,09,27,16,44,18.90
2012,09,27,16,45,18.90
2012,09,27,16,46,18.90
2012,09,27,16,47,18.90
2012,09,27,16,48,18.80
2012,09,27,16,49,18.80
2012,09,27,16,50,18.80
2012,09,27,16,51,18.80
2012,09,27,16,52,18.80
2012,09,27,16,53,18.80
2012,09,27,16,54,18.80
2012,09,27,16,55,18.80
2012,09,27,16,56,18.80
2012,09,27,16,57,18.80
2012,09,27,16,58,18.80
2012,09,27,16,59,18.90
2012,09,27,17,00,18.90
2012,09,27,17,01,18.90
2012,09,27,17,02,18.90
2012,09,27,17,03,18.90
2012,09,27,17,04,18.90
2012,09,27,17,05,18.90
2012,09,27,17,06,18.90
2012,09,27,17,07,18.90
2012,09,27,17,08,18.90
2012,09,27,17,09,18.90
2012,09,27,17,10,18.90
2012,09,27,17,11,18.90
2012,09,27,17,12,18.80
2012,09,27,17,13,18.80
2012,09,27,17,14,18.80
2012,09,27,17,15,18.70
2012,09,27,17,16,18.60
2012,09,27,17,17,18.60
2012,09,27,17,18,18.50
2012,09,27,17,19,18.40
2012,09,27,17,20,18.30
2012,09,27,17,21,18.20
2012,09,27,17,22,18.20
2012,09,27,17,23,18.10
2012,09,27,17,24,18.00
2012,09,27,17,25,18.00
2012,09,27,17,26,18.00
2012,09,27,17,27,17.90
2012,09,27,17,28,17.90
2012,09,27,17,29,17.90
2012,09,27,17,30,17.90
2012,09,27,17,31,17.90